• en France
  • Liste des pays
  • À 7 jours
  • Température de l'eau
  • Carte satellitaire
  • Carte météo
  • Widgets météo
  • user-avatar
    Se connecter

    Météo par heure à Veszprém

    Ce jour, 23 Septembre, Dimanche

    Heure Température Précipitation Vent Pression Humidité
    00:00 +13°C° 0 mm 1 m/s 744 mmHg 67%
    01:00 +13°C° 0 mm 1 m/s 744 mmHg 69%
    02:00 +13°C° 0 mm 1 m/s 744 mmHg 67%
    03:00 +13°C° 0 mm 1 m/s 744 mmHg 65%
    04:00 +13°C° 0 mm 1 m/s 744 mmHg 62%
    05:00 +13°C° 0 mm 1 m/s 744 mmHg 61%
    06:00 +13°C° 0 mm 1 m/s 744 mmHg 60%
    07:00 +14°C° 0 mm 1 m/s 744 mmHg 58%
    08:00 +15°C° 0 mm 2 m/s 744 mmHg 53%
    09:00 +16°C° 0 mm 2 m/s 744 mmHg 48%
    10:00 +17°C° 0 mm 3 m/s 744 mmHg 43%
    11:00 +17°C° 0 mm 3 m/s 743 mmHg 44%
    12:00 +18°C° 0 mm 3 m/s 743 mmHg 44%
    13:00 +18°C° 0 mm 3 m/s 742 mmHg 45%
    14:00 +19°C° 0 mm 3 m/s 741 mmHg 45%
    15:00 +20°C° 0 mm 3 m/s 741 mmHg 45%
    16:00 +21°C° 0 mm 3 m/s 740 mmHg 45%
    17:00 +21°C° 0 mm 4 m/s 739 mmHg 50%
    18:00 +20°C° 0 mm 4 m/s 738 mmHg 55%
    19:00 +19°C° 0 mm 4 m/s 738 mmHg 60%
    20:00 +19°C° 0.1 mm 5 m/s 737 mmHg 60%
    21:00 +20°C° 0.1 mm 6 m/s 736 mmHg 61%
    22:00 +20°C° 0.1 mm 6 m/s 735 mmHg 62%
    23:00 +20°C° 0.2 mm 7 m/s 735 mmHg 65%

    Demain, 24 Septembre, Lundi

    Heure Température Précipitation Vent Pression Humidité
    00:00 +20°C° 0.2 mm 7 m/s 734 mmHg 67%
    01:00 +21°C° 0.2 mm 7 m/s 734 mmHg 70%
    02:00 +18°C° 1.2 mm 8 m/s 735 mmHg 71%
    03:00 +16°C° 1.2 mm 9 m/s 736 mmHg 72%
    04:00 +13°C° 1.2 mm 11 m/s 737 mmHg 73%
    05:00 +12°C° 0.8 mm 10 m/s 739 mmHg 74%
    06:00 +10°C° 0.8 mm 9 m/s 740 mmHg 74%
    07:00 +9°C° 0.8 mm 8 m/s 742 mmHg 74%
    08:00 +10°C° 0.5 mm 8 m/s 743 mmHg 70%
    09:00 +10°C° 0.5 mm 8 m/s 745 mmHg 65%
    10:00 +11°C° 0.5 mm 7 m/s 746 mmHg 60%
    11:00 +12°C° 0 mm 8 m/s 746 mmHg 52%
    12:00 +13°C° 0 mm 8 m/s 746 mmHg 44%
    13:00 +16°C° 0 mm 9 m/s 746 mmHg 36%
    14:00 +15°C° 0 mm 8 m/s 747 mmHg 36%
    15:00 +15°C° 0 mm 8 m/s 747 mmHg 36%
    16:00 +15°C° 0 mm 8 m/s 747 mmHg 37%
    17:00 +13°C° 0 mm 6 m/s 747 mmHg 40%
    18:00 +12°C° 0 mm 5 m/s 748 mmHg 43%
    19:00 +11°C° 0 mm 4 m/s 748 mmHg 46%
    20:00 +10°C° 0 mm 4 m/s 749 mmHg 49%
    21:00 +10°C° 0 mm 4 m/s 749 mmHg 51%
    22:00 +8°C° 0 mm 4 m/s 750 mmHg 53%
    23:00 +8°C° 0 mm 4 m/s 750 mmHg 55%

    Après-demain, 25 Septembre, Mardi

    Heure Température Précipitation Vent Pression Humidité
    00:00 +7°C° 0 mm 4 m/s 750 mmHg 58%
    01:00 +7°C° 0 mm 4 m/s 750 mmHg 60%
    02:00 +6°C° 0 mm 4 m/s 751 mmHg 62%
    03:00 +6°C° 0 mm 4 m/s 751 mmHg 63%
    04:00 +6°C° 0 mm 4 m/s 751 mmHg 65%
    05:00 +6°C° 0 mm 5 m/s 751 mmHg 63%
    06:00 +6°C° 0 mm 5 m/s 751 mmHg 62%
    07:00 +7°C° 0 mm 6 m/s 752 mmHg 60%
    08:00 +8°C° 0 mm 6 m/s 752 mmHg 54%
    09:00 +9°C° 0 mm 7 m/s 753 mmHg 48%
    10:00 +11°C° 0 mm 7 m/s 753 mmHg 42%
    11:00 +12°C° 0 mm 7 m/s 753 mmHg 39%
    12:00 +13°C° 0 mm 6 m/s 753 mmHg 37%
    13:00 +14°C° 0 mm 6 m/s 753 mmHg 34%
    14:00 +14°C° 0 mm 6 m/s 753 mmHg 35%
    15:00 +14°C° 0 mm 6 m/s 752 mmHg 35%
    16:00 +13°C° 0 mm 5 m/s 752 mmHg 36%
    17:00 +12°C° 0 mm 4 m/s 753 mmHg 41%
    18:00 +10°C° 0 mm 4 m/s 753 mmHg 46%
    19:00 +9°C° 0 mm 3 m/s 754 mmHg 52%
    20:00 +8°C° 0 mm 2 m/s 754 mmHg 54%
    21:00 +7°C° 0 mm 2 m/s 754 mmHg 57%
    22:00 +7°C° 0 mm 2 m/s 755 mmHg 60%
    23:00 +7°C° 0 mm 2 m/s 755 mmHg 62%

    26 Septembre, Mercredi

    Heure Température Précipitation Vent Pression Humidité
    00:00 +6°C° 0 mm 2 m/s 755 mmHg 64%
    01:00 +6°C° 0 mm 2 m/s 755 mmHg 66%
    02:00 +5°C° 0 mm 2 m/s 755 mmHg 68%
    03:00 +6°C° 0 mm 1 m/s 755 mmHg 70%
    04:00 +6°C° 0 mm 1 m/s 755 mmHg 72%
    05:00 +6°C° 0 mm 1 m/s 755 mmHg 69%
    06:00 +7°C° 0 mm 1 m/s 755 mmHg 67%
    07:00 +7°C° 0 mm 1 m/s 755 mmHg 65%
    08:00 +10°C° 0 mm 1 m/s 755 mmHg 57%
    09:00 +12°C° 0 mm 1 m/s 755 mmHg 49%
    10:00 +14°C° 0 mm 2 m/s 755 mmHg 42%
    11:00 +15°C° 0 mm 2 m/s 755 mmHg 38%
    12:00 +16°C° 0 mm 2 m/s 754 mmHg 34%
    13:00 +17°C° 0 mm 2 m/s 754 mmHg 30%
    14:00 +17°C° 0 mm 2 m/s 753 mmHg 30%
    15:00 +17°C° 0 mm 2 m/s 753 mmHg 30%
    16:00 +17°C° 0 mm 2 m/s 752 mmHg 30%
    17:00 +15°C° 0 mm 2 m/s 752 mmHg 34%
    18:00 +13°C° 0 mm 2 m/s 752 mmHg 39%
    19:00 +10°C° 0 mm 2 m/s 752 mmHg 43%
    20:00 +10°C° 0 mm 2 m/s 752 mmHg 44%
    21:00 +10°C° 0 mm 2 m/s 752 mmHg 46%
    22:00 +9°C° 0 mm 2 m/s 752 mmHg 47%
    23:00 +9°C° 0 mm 2 m/s 752 mmHg 48%

    27 Septembre, Jeudi

    Heure Température Précipitation Vent Pression Humidité
    00:00 +8°C° 0 mm 2 m/s 751 mmHg 49%
    01:00 +8°C° 0 mm 2 m/s 751 mmHg 51%
    02:00 +8°C° 0 mm 2 m/s 751 mmHg 52%
    03:00 +8°C° 0 mm 2 m/s 751 mmHg 53%
    04:00 +7°C° 0 mm 2 m/s 751 mmHg 54%
    05:00 +8°C° 0 mm 2 m/s 751 mmHg 53%
    06:00 +8°C° 0 mm 2 m/s 751 mmHg 53%
    07:00 +9°C° 0 mm 2 m/s 751 mmHg 53%
    08:00 +12°C° 0 mm 2 m/s 751 mmHg 47%
    09:00 +15°C° 0 mm 2 m/s 751 mmHg 41%
    10:00 +17°C° 0 mm 2 m/s 751 mmHg 35%
    11:00 +18°C° 0 mm 2 m/s 750 mmHg 32%
    12:00 +20°C° 0 mm 2 m/s 750 mmHg 30%
    13:00 +21°C° 0 mm 2 m/s 749 mmHg 27%
    14:00 +21°C° 0 mm 2 m/s 749 mmHg 27%
    15:00 +22°C° 0 mm 1 m/s 748 mmHg 28%
    16:00 +22°C° 0 mm 1 m/s 748 mmHg 28%
    17:00 +20°C° 0 mm 1 m/s 748 mmHg 32%
    18:00 +18°C° 0 mm 1 m/s 747 mmHg 36%
    19:00 +15°C° 0 mm 1 m/s 747 mmHg 40%
    20:00 +15°C° 0 mm 1 m/s 747 mmHg 41%
    21:00 +14°C° 0 mm 1 m/s 747 mmHg 42%
    22:00 +14°C° 0 mm 1 m/s 747 mmHg 43%
    23:00 +14°C° 0 mm 1 m/s 746 mmHg 44%

    28 Septembre, Vendredi

    Heure Température Précipitation Vent Pression Humidité
    00:00 +13°C° 0 mm 1 m/s 746 mmHg 45%
    01:00 +13°C° 0 mm 1 m/s 746 mmHg 46%
    02:00 +13°C° 0 mm 1 m/s 745 mmHg 46%
    03:00 +12°C° 0 mm 1 m/s 745 mmHg 47%
    04:00 +12°C° 0 mm 1 m/s 745 mmHg 48%
    05:00 +13°C° 0 mm 1 m/s 744 mmHg 48%
    06:00 +13°C° 0 mm 1 m/s 744 mmHg 48%
    07:00 +14°C° 0 mm 1 m/s 744 mmHg 47%
    08:00 +16°C° 0 mm 1 m/s 744 mmHg 42%
    09:00 +19°C° 0 mm 1 m/s 744 mmHg 36%
    10:00 +20°C° 0 mm 2 m/s 744 mmHg 30%
    11:00 +23°C° 0 mm 2 m/s 744 mmHg 29%
    12:00 +24°C° 0 mm 2 m/s 743 mmHg 28%
    13:00 +25°C° 0 mm 2 m/s 743 mmHg 26%
    14:00 +25°C° 0 mm 1 m/s 742 mmHg 27%
    15:00 +25°C° 0 mm 1 m/s 742 mmHg 28%
    16:00 +25°C° 0 mm 1 m/s 742 mmHg 29%
    17:00 +23°C° 0 mm 1 m/s 742 mmHg 33%
    18:00 +20°C° 0 mm 1 m/s 742 mmHg 37%
    19:00 +16°C° 0 mm 0 m/s 742 mmHg 41%
    20:00 +16°C° 0 mm 0 m/s 742 mmHg 42%
    21:00 +15°C° 0 mm 0 m/s 742 mmHg 43%
    22:00 +14°C° 0 mm 0 m/s 742 mmHg 45%
    23:00 +14°C° 0 mm 0 m/s 742 mmHg 46%
    Voir plus